Terug naar catalogus

STARLINK-34988

ActiefCommunicatieSSO
NORAD 65453·PAYLOAD·🇺🇸 United States

Gelanceerd Sep 3, 2025 vanaf Vandenberg Space Force Base

Loading…

Volgende Passages (komende 24 uur)

TLE

VersSource: CelesTrak SupGP

Epoch: Sep 15, 2026, 04:05 UTC

1 65453C 25194V   26258.17062500 -.00053946  00000+0 -38281-2 0  2588
2 65453  97.2851 108.4633 0001403  83.3270  65.6849 15.04869209    16

Volg STARLINK-34988 in realtime met AllMySat

Download on the App Store